Weather History for Palma De Mallorca / Son San Juan, Spain

Change the Weather History Date:

Saturday, January 19, 2013

  Actual Average Record
Temperature  
Mean Temperature 58 °F -  
Max Temperature 63 °F 57 °F - ()
Min Temperature 53 °F 39 °F - ()
Degree Days  
Heating Degree Days 7    
Growing Degree Days 8 (Base 50)    
Moisture  
Dew Point 54 °F    
Average Humidity 82    
Maximum Humidity 94    
Minimum Humidity 50    
Precipitation  
Precipitation 0.20 in 0.05 in - ()
Sea Level Pressure  
Sea Level Pressure 29.29 in    
Wind  
Wind Speed 14 mph ()    
Max Wind Speed 28 mph    
Max Gust Speed 40 mph    
Visibility 6.2 miles    
Events Fog , Rain    
T = Trace of Precipitation, MM = Missing Value Source: Averaged Metar Reports

Daily Weather History Graph

Daily Weather History Graph

Search for Another Location

Airport:

Trip Planner

Search our weather history database for the weather conditions in past years. The results will help you decide how hot, cold, wet, or windy it might be!

Date:

Astronomy

Jan. 19, 2013 Rise Set
Actual Time 8:06 AM CET 5:53 PM CET
Civil Twilight 7:36 AM CET 6:23 PM CET
Nautical Twilight 7:03 AM CET 6:56 PM CET
Astronomical Twilight 6:31 AM CET 7:28 PM CET
Moon 12:11 PM CET 1:25 AM CET
Length of Visible Light 10h 46m
Length of Day
9h 47m
First Quarter, 54% of the Moon is Illuminated
Jan 19
First Quarter
Jan 27
Full
Feb 3
Last Quarter
Feb 10
New
Feb 17
First Quarter

Hourly Weather History & Observations

Time (CET) Temp. Dew Point Humidity Pressure Visibility Wind Dir Wind Speed Gust Speed Precip Events Conditions
12:00 AM 62.6 °F 53.6 °F 72% 29.53 in 6.2 mi SW 11.5 mph - N/A   Partly Cloudy
12:30 AM 62.6 °F 51.8 °F 68% 29.50 in 6.2 mi West 18.4 mph - N/A   Partly Cloudy
1:00 AM 62 °F 48 °F 50% 29.50 in 12 mi West 25.3 mph - -   Scattered Clouds
1:00 AM 62.6 °F 51.8 °F 68% 29.47 in 6.2 mi WSW 21.9 mph 33.4 mph N/A   Partly Cloudy
1:30 AM 62.6 °F 51.8 °F 68% 29.47 in 6.2 mi WSW 18.4 mph - N/A   Partly Cloudy
2:00 AM 64.4 °F 50.0 °F 59% 29.47 in 6.2 mi West 27.6 mph 40.3 mph N/A   Partly Cloudy
2:30 AM 64.4 °F 50.0 °F 59% 29.44 in 6.2 mi West 18.4 mph 29.9 mph N/A   Partly Cloudy
3:00 AM 64.4 °F 50.0 °F 59% 29.44 in 6.2 mi West 20.7 mph 32.2 mph N/A   Partly Cloudy
3:30 AM 62.6 °F 51.8 °F 68% 29.44 in 6.2 mi WSW 19.6 mph - N/A   Partly Cloudy
4:00 AM 64.4 °F 50.0 °F 59% 29.44 in 6.2 mi SW 9.2 mph - N/A   Partly Cloudy
4:30 AM 60.8 °F 53.6 °F 77% 29.42 in 6.2 mi SW 10.4 mph - N/A   Partly Cloudy
5:00 AM 60.8 °F 55.4 °F 82% 29.42 in 6.2 mi SW 12.7 mph - N/A   Partly Cloudy
5:30 AM 59.0 °F 55.4 °F 88% 29.42 in 6.2 mi WSW 10.4 mph - N/A   Partly Cloudy
6:00 AM 59.0 °F 55.4 °F 88% 29.39 in 6.2 mi WSW 5.8 mph - N/A   Partly Cloudy
6:30 AM 59.0 °F 57.2 °F 94% 29.39 in 6.2 mi West 5.8 mph - N/A   Scattered Clouds
7:00 AM 58 °F 54 °F 82% 29.39 in 9 mi WSW 10.4 mph - -   Partly Cloudy
7:00 AM 59.0 °F 57.2 °F 94% 29.39 in 6.2 mi West 4.6 mph - N/A   Scattered Clouds
7:30 AM 59.0 °F 57.2 °F 94% 29.39 in 6.2 mi WSW 8.1 mph - N/A   Scattered Clouds
8:00 AM 59.0 °F 57.2 °F 94% 29.36 in 6.2 mi WSW 10.4 mph - N/A Fog Patches of Fog
8:30 AM 59.0 °F 57.2 °F 94% 29.36 in 6.2 mi WSW 10.4 mph - N/A Fog Patches of Fog
9:00 AM 59.0 °F 57.2 °F 94% 29.33 in 6.2 mi SW 15.0 mph - N/A   Mostly Cloudy
9:30 AM 60.8 °F 57.2 °F 88% 29.33 in 6.2 mi SW 12.7 mph - N/A   Mostly Cloudy
10:00 AM 60.8 °F 57.2 °F 88% 29.33 in 6.2 mi WSW 15.0 mph - N/A   Mostly Cloudy
10:30 AM 60.8 °F 57.2 °F 88% 29.33 in 5.0 mi WSW 18.4 mph - N/A   Mostly Cloudy
10:41 AM 60.8 °F 57.2 °F 88% 29.33 in 4.3 mi WSW 16.1 mph - N/A Rain Rain
11:00 AM 60.8 °F 57.2 °F 88% 29.33 in 6.2 mi SW 12.7 mph - N/A   Mostly Cloudy
11:30 AM 60.8 °F 57.2 °F 88% 29.30 in 6.2 mi SW 13.8 mph - N/A   Mostly Cloudy
12:00 PM 60.8 °F 57.2 °F 88% 29.27 in 6.2 mi SW 15.0 mph - N/A   Mostly Cloudy
12:30 PM 60.8 °F 57.2 °F 88% 29.27 in 6.2 mi SW 13.8 mph - N/A   Mostly Cloudy
1:00 PM 60 °F 53 °F 71% 29.26 in 7 mi SW 15.0 mph - -   Partly Cloudy
1:00 PM 60.8 °F 57.2 °F 88% 29.24 in 6.2 mi SW 13.8 mph - N/A   Mostly Cloudy
1:30 PM 59.0 °F 57.2 °F 94% 29.21 in 5.6 mi SSW 16.1 mph - N/A Rain Rain
2:00 PM 59.0 °F 57.2 °F 94% 29.21 in 5.6 mi SSW 12.7 mph - N/A Rain Rain
2:30 PM 60.8 °F 57.2 °F 88% 29.18 in 5.6 mi SSW 13.8 mph - N/A Rain Light Rain
3:00 PM 60.8 °F 55.4 °F 82% 29.15 in 5.6 mi SSW 13.8 mph - N/A Rain Light Rain
3:30 PM 60.8 °F 55.4 °F 82% 29.15 in 5.6 mi South 17.3 mph 31.1 mph N/A   Mostly Cloudy
4:00 PM 60.8 °F 55.4 °F 82% 29.12 in 6.2 mi SSW 21.9 mph 34.5 mph N/A   Mostly Cloudy
4:30 PM 57.2 °F 53.6 °F 88% 29.12 in 6.2 mi WSW 24.2 mph 35.7 mph N/A   Mostly Cloudy
5:00 PM 55.4 °F 51.8 °F 88% 29.12 in 5.6 mi WSW 17.3 mph - N/A Rain Light Rain
5:30 PM 53.6 °F 51.8 °F 94% 29.12 in 5.6 mi SSW 6.9 mph - N/A Rain Light Rain
6:00 PM 53.6 °F 50.0 °F 88% 29.12 in 5.6 mi SW 8.1 mph - N/A   Mostly Cloudy
6:30 PM 55.4 °F 51.8 °F 88% 29.12 in 5.6 mi SSW 6.9 mph - N/A   Mostly Cloudy
7:00 PM 53 °F 48 °F 78% 29.16 in 7 mi SSW 9.2 mph - -   Partly Cloudy
7:00 PM 55.4 °F 51.8 °F 88% 29.15 in 6.2 mi SSW 4.6 mph - N/A   Mostly Cloudy
7:30 PM 57.2 °F 51.8 °F 82% 29.15 in 6.2 mi SW 16.1 mph - N/A   Mostly Cloudy
8:00 PM 57.2 °F 51.8 °F 82% 29.15 in 6.2 mi SW 12.7 mph - N/A   Mostly Cloudy
8:30 PM 57.2 °F 50.0 °F 77% 29.15 in 6.2 mi SW 23.0 mph - N/A   Mostly Cloudy
9:00 PM 57.2 °F 50.0 °F 77% 29.15 in 6.2 mi SW 23.0 mph - N/A   Mostly Cloudy
9:30 PM 57.2 °F 51.8 °F 82% 29.15 in 6.2 mi SW 23.0 mph - N/A   Mostly Cloudy
10:00 PM 57.2 °F 51.8 °F 82% 29.15 in 6.2 mi SW 23.0 mph - N/A   Mostly Cloudy
10:30 PM 57.2 °F 50.0 °F 77% 29.15 in 6.2 mi SW 26.5 mph 38.0 mph N/A   Mostly Cloudy
11:00 PM 57.2 °F 50.0 °F 77% 29.15 in 6.2 mi SW 24.2 mph 36.8 mph N/A   Mostly Cloudy
11:30 PM 57.2 °F 50.0 °F 77% 29.15 in 6.2 mi SSW 21.9 mph - N/A   Mostly Cloudy